| time (UTC) | temp F | wind direction | speed MPH | gust MPH | rain 1hr in | rain 24hr in | rain mn in | humidity % | barometer mb |
| 20260505013945 | 56 | 149 | 3.0 | 9.0 | 0.00 | 0.00 | 0.00 | 66 | 1013.9 |
| 20260505013445 | 56 | 146 | 2.0 | 5.0 | 0.00 | 0.00 | 0.00 | 65 | 1013.8 |
| 20260505012945 | 56 | 267 | 3.0 | 6.0 | 0.00 | 0.00 | 0.00 | 65 | 1013.7 |
| 20260505012445 | 56 | 153 | 3.0 | 6.0 | 0.00 | 0.00 | 0.00 | 64 | 1013.7 |
| 20260505011945 | 56 | 189 | 3.0 | 5.0 | 0.00 | 0.00 | 0.00 | 64 | 1013.6 |
| 20260505011445 | 57 | 154 | 2.0 | 5.0 | 0.00 | 0.00 | 0.00 | 63 | 1013.5 |
| 20260505010946 | 57 | 235 | 2.0 | 5.0 | 0.00 | 0.00 | 0.00 | 62 | 1013.4 |
| 20260505010445 | 57 | 193 | 3.0 | 6.0 | 0.00 | 0.00 | 0.00 | 62 | 1013.3 |
| 20260505005935 | 57 | 194 | 3.0 | 8.0 | 0.00 | 0.00 | 0.00 | 61 | 1013.2 |
| 20260505005435 | 57 | 264 | 3.0 | 8.0 | 0.00 | 0.00 | 0.00 | 60 | 1013.1 |
| 20260505004935 | 58 | 221 | 4.0 | 9.0 | 0.00 | 0.00 | 0.00 | 59 | 1012.9 |
| 20260505004435 | 58 | 180 | 4.0 | 10.0 | 0.00 | 0.00 | 0.00 | 58 | 1012.8 |
| 20260505003929 | 58 | 225 | 4.0 | 10.0 | 0.00 | 0.00 | 0.00 | 57 | 1012.8 |
| 20260505003430 | 58 | 187 | 4.0 | 8.0 | 0.00 | 0.00 | 0.00 | 57 | 1012.7 |
| 20260505002923 | 59 | 242 | 3.0 | 9.0 | 0.00 | 0.00 | 0.00 | 56 | 1012.5 |
| 20260505002644 | 59 | 181 | 3.0 | 9.0 | 0.00 | 0.00 | 0.00 | 55 | 1012.5 |
| 20260505001923 | 59 | 240 | 4.0 | 9.0 | 0.00 | 0.00 | 0.00 | 54 | 1012.3 |
| 20260505001646 | 59 | 120 | 4.0 | 8.0 | 0.00 | 0.00 | 0.00 | 54 | 1012.2 |
| 20260505000923 | 60 | 222 | 4.0 | 9.0 | 0.00 | 0.00 | 0.00 | 53 | 1012.0 |
| 20260505000736 | 60 | 200 | 5.0 | 10.0 | 0.00 | 0.00 | 0.00 | 52 | 1011.9 |
| 20260505000642 | 60 | 239 | 6.0 | 13.0 | 0.00 | 0.00 | 0.00 | 51 | 1011.9 |
| 20260504235424 | 60 | 252 | 6.0 | 13.0 | 0.00 | 0.00 | 0.00 | 51 | 1011.8 |
| 20260504234924 | 60 | 282 | 6.0 | 11.0 | 0.00 | 0.00 | 0.00 | 51 | 1011.7 |
| 20260504234424 | 61 | 234 | 5.0 | 12.0 | 0.00 | 0.00 | 0.00 | 50 | 1011.6 |
| 20260504233924 | 61 | 230 | 5.0 | 12.0 | 0.00 | 0.00 | 0.00 | 50 | 1011.5 |
| 20260504233425 | 62 | 271 | 5.0 | 12.0 | 0.00 | 0.00 | 0.00 | 49 | 1011.4 |
| 20260504232926 | 62 | 224 | 5.0 | 9.0 | 0.00 | 0.00 | 0.00 | 48 | 1011.4 |
| 20260504232425 | 62 | 263 | 4.0 | 9.0 | 0.00 | 0.00 | 0.00 | 48 | 1011.4 |
| 20260504231918 | 62 | 279 | 4.0 | 13.0 | 0.00 | 0.00 | 0.00 | 47 | 1011.3 |
| 20260504231413 | 63 | 230 | 5.0 | 13.0 | 0.00 | 0.00 | 0.00 | 47 | 1011.3 |
| 20260504230912 | 63 | 253 | 5.0 | 11.0 | 0.00 | 0.00 | 0.00 | 46 | 1011.2 |
| 20260504230412 | 63 | 233 | 5.0 | 10.0 | 0.00 | 0.00 | 0.00 | 46 | 1011.1 |
| 20260504225913 | 64 | 273 | 5.0 | 10.0 | 0.00 | 0.00 | 0.00 | 45 | 1011.1 |
| 20260504225640 | 64 | 249 | 5.0 | 11.0 | 0.00 | 0.00 | 0.00 | 45 | 1011.0 |
| 20260504224913 | 64 | 255 | 5.0 | 11.0 | 0.00 | 0.00 | 0.00 | 45 | 1011.0 |
| 20260504224413 | 64 | 251 | 5.0 | 10.0 | 0.00 | 0.00 | 0.00 | 45 | 1010.9 |
| 20260504223913 | 65 | 331 | 5.0 | 16.0 | 0.00 | 0.00 | 0.00 | 45 | 1010.9 |
| 20260504223413 | 65 | 329 | 6.0 | 16.0 | 0.00 | 0.00 | 0.00 | 45 | 1010.9 |
| 20260504223134 | 66 | 281 | 6.0 | 14.0 | 0.00 | 0.00 | 0.00 | 44 | 1010.8 |
| 20260504222413 | 66 | 176 | 6.0 | 14.0 | 0.00 | 0.00 | 0.00 | 43 | 1010.7 |
| 20260504221913 | 67 | 213 | 5.0 | 10.0 | 0.00 | 0.00 | 0.00 | 43 | 1010.7 |
| 20260504221413 | 67 | 301 | 5.0 | 12.0 | 0.00 | 0.00 | 0.00 | 42 | 1010.6 |
| 20260504220914 | 67 | 197 | 6.0 | 13.0 | 0.00 | 0.00 | 0.00 | 42 | 1010.6 |
| 20260504220410 | 67 | 240 | 6.0 | 13.0 | 0.00 | 0.00 | 0.00 | 41 | 1010.7 |
| 20260504215910 | 67 | 208 | 5.0 | 12.0 | 0.00 | 0.00 | 0.00 | 41 | 1010.6 |
| 20260504215634 | 67 | 212 | 5.0 | 12.0 | 0.00 | 0.00 | 0.00 | 41 | 1010.6 |
| 20260504214910 | 68 | 194 | 5.0 | 12.0 | 0.00 | 0.00 | 0.00 | 41 | 1010.6 |
| 20260504214611 | 68 | 261 | 6.0 | 13.0 | 0.00 | 0.00 | 0.00 | 40 | 1010.5 |
| 20260504214457 | 68 | 238 | 5.0 | 13.0 | 0.00 | 0.00 | 0.00 | 41 | 1010.7 |
| 20260504213408 | 69 | 168 | 4.0 | 10.0 | 0.00 | 0.00 | 0.00 | 40 | 1010.6 |
| 20260504212907 | 69 | 199 | 4.0 | 11.0 | 0.00 | 0.00 | 0.00 | 40 | 1010.5 |
| 20260504212407 | 68 | 177 | 5.0 | 12.0 | 0.00 | 0.00 | 0.00 | 40 | 1010.5 |
| 20260504211908 | 68 | 217 | 5.0 | 12.0 | 0.00 | 0.00 | 0.00 | 39 | 1010.5 |
| 20260504211409 | 69 | 254 | 4.0 | 9.0 | 0.00 | 0.00 | 0.00 | 39 | 1010.5 |
| 20260504211126 | 68 | 288 | 5.0 | 12.0 | 0.00 | 0.00 | 0.00 | 39 | 1010.5 |
| 20260504210405 | 69 | 269 | 5.0 | 12.0 | 0.00 | 0.00 | 0.00 | 38 | 1010.4 |
| 20260504205902 | 69 | 292 | 5.0 | 9.0 | 0.00 | 0.00 | 0.00 | 38 | 1010.3 |
| 20260504205853 | 69 | 207 | 5.0 | 9.0 | 0.00 | 0.00 | 0.00 | 38 | 1010.4 |
| 20260504204903 | 69 | 199 | 5.0 | 13.0 | 0.00 | 0.00 | 0.00 | 38 | 1010.3 |
| 20260504204403 | 69 | 350 | 5.0 | 13.0 | 0.00 | 0.00 | 0.00 | 39 | 1010.3 |
| 20260504203903 | 69 | 268 | 5.0 | 12.0 | 0.00 | 0.00 | 0.00 | 38 | 1010.2 |
| 20260504203627 | 69 | 171 | 5.0 | 12.0 | 0.00 | 0.00 | 0.00 | 38 | 1010.3 |
| 20260504202903 | 70 | 259 | 4.0 | 12.0 | 0.00 | 0.00 | 0.00 | 36 | 1010.3 |
| 20260504202403 | 70 | 259 | 4.0 | 9.0 | 0.00 | 0.00 | 0.00 | 34 | 1010.2 |
| 20260504201903 | 70 | 328 | 4.0 | 11.0 | 0.00 | 0.00 | 0.00 | 33 | 1010.3 |
| 20260504201403 | 69 | 321 | 5.0 | 13.0 | 0.00 | 0.00 | 0.00 | 34 | 1010.3 |
| 20260504200903 | 69 | 201 | 5.0 | 13.0 | 0.00 | 0.00 | 0.00 | 33 | 1010.2 |
| 20260504200404 | 69 | 150 | 5.0 | 10.0 | 0.00 | 0.00 | 0.00 | 34 | 1010.3 |
| 20260504195904 | 69 | 85 | 5.0 | 10.0 | 0.00 | 0.00 | 0.00 | 33 | 1010.2 |
| 20260504195400 | 69 | 250 | 5.0 | 12.0 | 0.00 | 0.00 | 0.00 | 33 | 1010.4 |
| 20260504194901 | 69 | 217 | 5.0 | 12.0 | 0.00 | 0.00 | 0.00 | 34 | 1010.5 |
| 20260504194836 | 69 | 252 | 5.0 | 13.0 | 0.00 | 0.00 | 0.00 | 33 | 1010.5 |
| 20260504194119 | 69 | 258 | 5.0 | 13.0 | 0.00 | 0.00 | 0.00 | 34 | 1010.4 |
| 20260504193357 | 69 | 168 | 5.0 | 12.0 | 0.00 | 0.00 | 0.00 | 33 | 1010.5 |
| 20260504193337 | 69 | 233 | 5.0 | 12.0 | 0.00 | 0.00 | 0.00 | 33 | 1010.5 |
| 20260504192354 | 69 | 125 | 5.0 | 12.0 | 0.00 | 0.00 | 0.00 | 32 | 1010.4 |
| 20260504192125 | 69 | 176 | 4.0 | 11.0 | 0.00 | 0.00 | 0.00 | 33 | 1010.3 |
| 20260504191355 | 69 | 242 | 5.0 | 12.0 | 0.00 | 0.00 | 0.00 | 33 | 1010.4 |
| 20260504190855 | 69 | 251 | 6.0 | 12.0 | 0.00 | 0.00 | 0.00 | 32 | 1010.4 |
| 20260504190355 | 69 | 308 | 5.0 | 11.0 | 0.00 | 0.00 | 0.00 | 32 | 1010.5 |
| 20260504190121 | 69 | 271 | 5.0 | 11.0 | 0.00 | 0.00 | 0.00 | 34 | 1010.6 |
| 20260504185352 | 69 | 184 | 5.0 | 12.0 | 0.00 | 0.00 | 0.00 | 33 | 1010.6 |
| 20260504185338 | 69 | 210 | 5.0 | 12.0 | 0.00 | 0.00 | 0.00 | 31 | 1010.8 |
| 20260504184352 | 69 | 275 | 5.0 | 9.0 | 0.00 | 0.00 | 0.00 | 32 | 1010.8 |
| 20260504183853 | 69 | 241 | 4.0 | 11.0 | 0.00 | 0.00 | 0.00 | 33 | 1010.7 |
| 20260504183351 | 69 | 271 | 4.0 | 11.0 | 0.00 | 0.00 | 0.00 | 32 | 1010.9 |
| 20260504182851 | 69 | 313 | 5.0 | 9.0 | 0.00 | 0.00 | 0.00 | 33 | 1010.8 |
| 20260504182610 | 68 | 251 | 5.0 | 9.0 | 0.00 | 0.00 | 0.00 | 33 | 1011.0 |
| 20260504181851 | 68 | 209 | 5.0 | 14.0 | 0.00 | 0.00 | 0.00 | 32 | 1011.1 |
| 20260504181351 | 68 | 346 | 5.0 | 14.0 | 0.00 | 0.00 | 0.00 | 32 | 1011.2 |
| 20260504180850 | 68 | 260 | 5.0 | 10.0 | 0.00 | 0.00 | 0.00 | 34 | 1011.1 |
| 20260504180351 | 68 | 283 | 6.0 | 10.0 | 0.00 | 0.00 | 0.00 | 32 | 1011.2 |
| 20260504175851 | 68 | 242 | 5.0 | 10.0 | 0.00 | 0.00 | 0.00 | 34 | 1011.1 |
| 20260504175351 | 68 | 321 | 5.0 | 10.0 | 0.00 | 0.00 | 0.00 | 33 | 1011.2 |
| 20260504174851 | 68 | 278 | 5.0 | 10.0 | 0.00 | 0.00 | 0.00 | 32 | 1011.4 |
| 20260504174351 | 68 | 228 | 6.0 | 13.0 | 0.00 | 0.00 | 0.00 | 33 | 1011.3 |
| 20260504173851 | 68 | 248 | 6.0 | 13.0 | 0.00 | 0.00 | 0.00 | 32 | 1011.3 |
| 20260504173351 | 68 | 250 | 6.0 | 13.0 | 0.00 | 0.00 | 0.00 | 33 | 1011.2 |
| 20260504172852 | 68 | 288 | 5.0 | 10.0 | 0.00 | 0.00 | 0.00 | 32 | 1011.1 |
| 20260504172351 | 68 | 281 | 5.0 | 12.0 | 0.00 | 0.00 | 0.00 | 33 | 1011.1 |
| 20260504171850 | 67 | 344 | 5.0 | 12.0 | 0.00 | 0.00 | 0.00 | 33 | 1011.2 |
| 20260504171351 | 67 | 259 | 5.0 | 11.0 | 0.00 | 0.00 | 0.00 | 33 | 1011.2 |
| 20260504170848 | 67 | 205 | 6.0 | 15.0 | 0.00 | 0.00 | 0.00 | 33 | 1011.3 |
| 20260504170344 | 68 | 250 | 5.0 | 15.0 | 0.00 | 0.00 | 0.00 | 33 | 1011.2 |
| 20260504150815 | 63 | 297 | 5.0 | 18.0 | 0.00 | 0.00 | 0.00 | 37 | 1012.9 |
| 20260504150316 | 63 | 252 | 5.0 | 13.0 | 0.00 | 0.00 | 0.00 | 36 | 1012.9 |
| 20260504141309 | 61 | 326 | 4.0 | 8.0 | 0.00 | 0.00 | 0.00 | 40 | 1013.5 |
| 20260504140809 | 61 | 252 | 5.0 | 11.0 | 0.00 | 0.00 | 0.00 | 40 | 1013.6 |
| 20260504140307 | 61 | 251 | 5.0 | 12.0 | 0.00 | 0.00 | 0.00 | 41 | 1013.5 |
| 20260504130756 | 57 | 261 | 4.0 | 9.0 | 0.00 | 0.00 | 0.00 | 45 | 1013.9 |
| 20260504130257 | 57 | 250 | 5.0 | 10.0 | 0.00 | 0.00 | 0.00 | 46 | 1013.9 |
| 20260504120252 | 53 | 168 | 4.0 | 11.0 | 0.00 | 0.00 | 0.00 | 50 | 1014.3 |
| 20260504110246 | 47 | 177 | 3.0 | 6.0 | 0.00 | 0.00 | 0.00 | 58 | 1014.2 |
| 20260504100435 | 43 | 285 | 2.0 | 5.0 | 0.00 | 0.00 | 0.00 | 63 | 1014.1 |
| 20260504081701 | 45 | 70 | 2.0 | 3.0 | 0.00 | 0.00 | 0.00 | 56 | 1013.7 |
| 20260504081159 | 46 | 252 | 2.0 | 3.0 | 0.00 | 0.00 | 0.00 | 55 | 1013.8 |
| 20260504080648 | 46 | 255 | 2.0 | 3.0 | 0.00 | 0.00 | 0.00 | 54 | 1013.8 |
| 20260504080146 | 46 | 250 | 2.0 | 3.0 | 0.00 | 0.00 | 0.00 | 54 | 1013.8 |
| 20260504070117 | 44 | 249 | 2.0 | 3.0 | 0.00 | 0.00 | 0.00 | 60 | 1013.6 |
| 20260504050550 | 42 | 75 | 1.0 | 2.0 | 0.00 | 0.00 | 0.00 | 59 | 1013.8 |
| 20260504045551 | 42 | 66 | 1.0 | 4.0 | 0.00 | 0.00 | 0.00 | 59 | 1013.8 |
| 20260504045034 | 42 | 232 | 1.0 | 2.0 | 0.00 | 0.00 | 0.00 | 59 | 1013.9 |
| 20260504044536 | 42 | 96 | 1.0 | 1.0 | 0.00 | 0.00 | 0.00 | 59 | 1013.9 |
| 20260504044251 | 42 | 237 | 1.0 | 2.0 | 0.00 | 0.00 | 0.00 | 60 | 1013.9 |
| 20260504043537 | 43 | 100 | 1.0 | 2.0 | 0.00 | 0.00 | 0.00 | 60 | 1013.8 |
| 20260504043035 | 42 | 112 | 1.0 | 3.0 | 0.00 | 0.00 | 0.00 | 60 | 1013.8 |
| 20260504042758 | 42 | 250 | 2.0 | 4.0 | 0.00 | 0.00 | 0.00 | 58 | 1013.8 |
| 20260504042034 | 42 | 190 | 2.0 | 4.0 | 0.00 | 0.00 | 0.00 | 59 | 1013.8 |
| 20260504041536 | 42 | 254 | 1.0 | 4.0 | 0.00 | 0.00 | 0.00 | 60 | 1013.8 |
| 20260504041035 | 42 | 161 | 1.0 | 2.0 | 0.00 | 0.00 | 0.00 | 61 | 1013.7 |
| 20260504041014 | 42 | 110 | 1.0 | 2.0 | 0.00 | 0.00 | 0.00 | 61 | 1013.7 |
| 20260504040035 | 42 | 177 | 2.0 | 4.0 | 0.00 | 0.00 | 0.00 | 60 | 1013.6 |
| 20260504035537 | 42 | 80 | 2.0 | 4.0 | 0.00 | 0.00 | 0.00 | 60 | 1013.6 |
| 20260504035021 | 42 | 171 | 2.0 | 4.0 | 0.00 | 0.00 | 0.00 | 61 | 1013.6 |
| 20260504034742 | 42 | 82 | 2.0 | 4.0 | 0.00 | 0.00 | 0.00 | 60 | 1013.5 |
| 20260504034021 | 42 | 260 | 2.0 | 3.0 | 0.00 | 0.00 | 0.00 | 61 | 1013.5 |
| 20260504033521 | 42 | 81 | 2.0 | 3.0 | 0.00 | 0.00 | 0.00 | 61 | 1013.4 |
| 20260504033021 | 42 | 251 | 2.0 | 3.0 | 0.00 | 0.00 | 0.00 | 61 | 1013.4 |
| 20260504032521 | 42 | 73 | 2.0 | 3.0 | 0.00 | 0.00 | 0.00 | 62 | 1013.4 |
| 20260504032021 | 42 | 225 | 1.0 | 3.0 | 0.00 | 0.00 | 0.00 | 61 | 1013.4 |
| 20260504031744 | 42 | 64 | 1.0 | 3.0 | 0.00 | 0.00 | 0.00 | 61 | 1013.3 |
| 20260504031022 | 42 | 180 | 1.0 | 3.0 | 0.00 | 0.00 | 0.00 | 61 | 1013.3 |
| 20260504030521 | 42 | 258 | 2.0 | 4.0 | 0.00 | 0.00 | 0.00 | 60 | 1013.3 |
| 20260504030022 | 42 | 257 | 2.0 | 4.0 | 0.00 | 0.00 | 0.00 | 60 | 1013.3 |
| 20260504025521 | 42 | 249 | 2.0 | 4.0 | 0.00 | 0.00 | 0.00 | 60 | 1013.3 |
| 20260504025007 | 41 | 250 | 2.0 | 4.0 | 0.00 | 0.00 | 0.00 | 61 | 1013.2 |
| 20260504024506 | 41 | 238 | 2.0 | 3.0 | 0.00 | 0.00 | 0.00 | 62 | 1013.2 |
| 20260504024006 | 41 | 230 | 1.0 | 3.0 | 0.00 | 0.00 | 0.00 | 62 | 1013.2 |
| 20260504023507 | 41 | 183 | 1.0 | 2.0 | 0.00 | 0.00 | 0.00 | 62 | 1013.2 |
| 20260504023008 | 42 | 173 | 1.0 | 1.0 | 0.00 | 0.00 | 0.00 | 62 | 1013.2 |
| 20260504022507 | 42 | 0 | 1.0 | 2.0 | 0.00 | 0.00 | 0.00 | 61 | 1013.2 |
| 20260504022008 | 42 | 79 | 1.0 | 2.0 | 0.00 | 0.00 | 0.00 | 60 | 1013.1 |
| 20260504021508 | 42 | 256 | 1.0 | 2.0 | 0.00 | 0.00 | 0.00 | 60 | 1013.1 |
| 20260504021227 | 43 | 78 | 2.0 | 2.0 | 0.00 | 0.00 | 0.00 | 58 | 1013.1 |
| 20260504020506 | 43 | 240 | 2.0 | 2.0 | 0.00 | 0.00 | 0.00 | 58 | 1013.1 |
| 20260504020007 | 43 | 239 | 2.0 | 2.0 | 0.00 | 0.00 | 0.00 | 57 | 1013.1 |
| 20260504015506 | 43 | 241 | 2.0 | 3.0 | 0.00 | 0.00 | 0.00 | 56 | 1013.0 |
| 20260504014953 | 44 | 240 | 2.0 | 3.0 | 0.00 | 0.00 | 0.00 | 55 | 1013.0 |
| 20260504014714 | 44 | 73 | 2.0 | 3.0 | 0.00 | 0.00 | 0.00 | 54 | 1013.0 |